Location: Oshawa
(43.9000°N, 78.8670°W)
Time: 01:18:57
(UTC-04:00)

Transit 2A Rocket - Visible Passes

Search period start: 27 September 2016 00:00
Search period end: 07 October 2016 00:00
Orbit: 586 x 919 km, 66.7° (Epoch: 26 September)

Date Brightness Start Highest point End Pass type
(mag) Time Alt. Az. Time Alt. Az. Time Alt. Az.
27 Sep 7.1 21:22:53 10° N 21:25:49 14° NNE 21:25:54 14° NNE visible
27 Sep 7.5 23:04:20 10° NNW 23:05:48 18° NNW 23:05:48 18° NNW visible
28 Sep 7.3 20:41:44 10° NNE 20:42:50 11° NNE 20:43:55 10° NE visible
28 Sep 7.0 22:22:08 10° NNW 22:24:28 22° N 22:24:28 22° N visible
29 Sep 6.7 21:40:04 10° NNW 21:43:10 22° NNE 21:43:10 22° NNE visible
29 Sep 7.8 23:22:22 10° NW 23:23:04 14° NW 23:23:04 14° NW visible
30 Sep 6.8 20:58:07 10° N 21:01:47 18° NE 21:01:53 18° NE visible
30 Sep 7.2 22:39:56 10° NNW 22:41:48 22° NNW 22:41:48 22° NNW visible
01 Oct 7.1 20:16:27 10° N 20:18:51 13° NNE 20:20:39 11° NE visible
01 Oct 6.5 21:57:39 10° NNW 22:00:33 29° N 22:00:33 29° N visible
02 Oct 6.2 21:15:29 10° NNW 21:19:20 30° NNE 21:19:20 30° NNE visible
02 Oct 7.6 22:58:10 10° NW 22:59:15 16° NW 22:59:15 16° NW visible
03 Oct 6.4 20:33:27 10° N 20:37:39 22° NE 20:38:10 22° NE visible
03 Oct 6.8 22:15:35 10° NW 22:18:05 27° NW 22:18:05 27° NW visible
04 Oct 6.8 19:51:35 10° N 19:54:49 16° NNE 19:57:02 12° ENE visible
04 Oct 5.8 21:33:12 10° NNW 21:36:57 43° NNW 21:36:57 43° NNW visible
05 Oct 5.4 20:50:58 10° NNW 20:55:52 43° NE 20:55:52 43° NE visible
05 Oct 7.4 22:34:06 10° NW 22:35:47 18° WNW 22:35:47 18° WNW visible
06 Oct 5.9 20:08:51 10° NNW 20:13:29 28° NE 20:14:49 25° ENE visible
06 Oct 6.3 21:51:19 10° NW 21:54:45 35° WNW 21:54:45 35° WNW visible
